Miscellaneous Local Product
Issued by NWS North Platte, NE

Home | Current Version | Previous Version | Graphics & Text | Print | Product List | Glossary On
Versions: 1 2 3 4 5 6 7 8 9 10 11 12 13 14 15 16 17 18 19 20 21 22 23 24 25 26 27 28 29 30 31 32 33 34 35 36 37 38 39 40 41 42 43 44 45 46 47 48 49 50
000
AXUS43 KLBF 271310
MISLBF


WESTERN AND NORTH CENTRAL NEBRASKA HOURLY WEATHER ROUNDUP
NATIONAL WEATHER SERVICE NORTH PLATTE NE
800 AM CDT WED MAY 27 2015

***STATIONS NOT REPORTING VARIABLES SUCH AS SKY/WEATHER OR
PRESSURE ARE PROVIDED BY THE NEBRASKA DEPARTMENT OF
ROADS...RAWS...AND APRS NETWORKS...AND ARE NOT UNDER
NATIONAL WEATHER SERVICE QUALITY CONTROL***

...OBSERVATIONS IN AND NEAR THE EASTERN PANHANDLE OF NEBRASKA...

CITY           SKY/WX    TMP DP  RH WIND       PRES   REMARKS
PINE RIDGE     LGT RAIN  57  51  80 S3        30.03S
CHADRON        MOSUNNY   57  52  83 S5        30.00R
ALLIANCE       PTSUNNY   56  52  86 SE15      30.04R
SIDNEY         CLOUDY    53  51  93 SE10      30.07R
WHITECLAY        N/A     56  50  80 S5          N/A
BIG SPRINGS      N/A     57  53  86 E5          N/A
$$

...OBSERVATIONS IN NORTH CENTRAL NEBRASKA...

CITY           SKY/WX    TMP DP  RH WIND       PRES   REMARKS
VALENTINE      MOSUNNY   54  50  86 CALM      30.05S
THEDFORD       MOSUNNY   59  51  73 SW6       30.08S
AINSWORTH      MOSUNNY   57  51  79 SW5       30.06S
O`NEILL        SUNNY     59  51  75 SW3       30.06R
ORD            SUNNY     54  50  86 N3        30.05S
BROKEN BOW     SUNNY     58  51  78 CALM      30.06S
BROWNLEE         N/A     57  48  70 S5          N/A
VALENTINE NWR    N/A     52  49  90 SW5         N/A
SPRINGVIEW       N/A     51  49  93 CALM        N/A
HALSEY           N/A     56  48  75 CALM        N/A
BREWSTER         N/A     59  52  78 CALM        N/A
ROSE             N/A     60  54  78 CALM        N/A
NEWPORT          N/A     61  53  75 W3          N/A
SARGENT          N/A     50  49  97 CALM        N/A
COMSTOCK         N/A     64  54  68 CALM        N/A
EWING            N/A     58  53  84 W5          N/A
$$

...OBSERVATIONS IN SOUTHWEST NEBRASKA AND FAR NORTHEAST COLORADO...

CITY           SKY/WX    TMP DP  RH WIND       PRES   REMARKS
WRAY           FAIR      54  52  94 E8        30.06S
HOLYOKE        FAIR      55  50  82 SE8       30.07R
IMPERIAL       PTSUNNY   56  50  80 SE8       30.07R
OGALLALA       PTSUNNY   56  53  90 E5        30.06F
NORTH PLATTE   MOSUNNY   57  50  77 E3        30.08S
MCCOOK         MOSUNNY   58  51  78 SE5       30.07R
LEXINGTON      SUNNY     55  53  93 CALM      30.08S
PAXTON           N/A     57  53  85 CALM        N/A
GOTHENBURG       N/A     57  48  73 CALM        N/A
CALLAWAY         N/A     59  55  87 S6          N/A
$$

...NORTH PLATTE AREA...

CITY           SKY/WX    TMP DP  RH WIND       PRES   REMARKS
AIRPORT        MOSUNNY   57  50  77 E3        30.08S
DOWNTOWN         N/A     59  51  74 CALM        N/A
$$

...SOME WEATHER OBSERVATIONS FROM AROUND THE REGION...

CITY           SKY/WX    TMP DP  RH WIND       PRES   REMARKS
DENVER         PTSUNNY   50  43  77 NE3       30.07S
LARAMIE        MOSUNNY   48  39  71 SW7       30.13R
CHEYENNE       PTSUNNY   50  42  74 W10       30.09S
SCOTTSBLUFF    MOSUNNY   53  51  93 SE9       30.03S
RAPID CITY     CLOUDY    55  52  89 SE5       29.99S
PIERRE         PTSUNNY   57  50  77 SW6       29.99R
WINNER         FAIR      63  47  55 SW9       30.02R
SIOUX FALLS    SUNNY     61  53  75 CALM      29.99R
OMAHA          SUNNY     60  56  86 S5        30.04R
GRAND ISLAND   SUNNY     58  50  75 NW3       30.06F
KANSAS CITY    MOSUNNY   64  58  80 W3        30.07R
WICHITA        PTSUNNY   66  60  81 E8        30.06R
HAYS           PTSUNNY   59  50  72 CALM      30.07S
LIBERAL        MOSUNNY   61  57  88 S7        30.08S
GOODLAND       CLOUDY    56  52  86 S8        30.07R
$$



USA.gov is the U.S. government's official web portal to all federal, state and local government web resources and services.